User: anonymous   Login
Location: Demmingen
(48.6757°N, 10.4375°E)
Time: 12:06:49
(UTC+00:00)
Language:

BREEZE-M DEB (TANK) - Orbit

View from above orbital plane
View from above orbital plane
View from above satellite
View from above satellite

Ground track
Ground track

The orbit data is extracted from the following two-line orbital elements,

1 37828U 11054C   24200.77610974  .00010145  00000-0  16155-2 0  9999
2 37828  49.4060  88.8723 5549494 115.8426 310.4805  4.74018267214520
Epoch (UTC): 18 July 2024 18:37:35
Eccentricity: 0.5549494
inclination: 49.4060°
perigee height: 284 km
apogee height: 16898 km
right ascension of ascending node: 88.8723°
argument of perigee: 115.8426°
revolutions per day: 4.74018267
mean anomaly at epoch: 310.4805°
orbit number at epoch: 21452

The dashed part of the orbit path shows where the satellite is in the earth's shadow,  

DLR